GFSWCAN_sfc_rhum_156.txt.gz
RH
66 68 77 85 88 94 89 90 87 85 84 85 86 86 86 87 89 84 78 78 78 99 62 64 57 67 67 73 74 81 96 98 99 99 74 65 61 48 48 43 57 67 70 77 74 90 84 41 48 50 71 61 59 56
73 79 79 86 92 95 90 86 86 86 87 87 88 87 87 88 88 81 87 76 73 83 67 64 56 51 54 53 91 97 91 86 75 69 58 58 70 61 52 57 46 74 52 70 65 57 57 45 52 51 49 54 59 53
78 81 91 95 90 91 93 92 91 88 88 88 88 87 87 87 88 79 93 85 88 93 93 88 72 53 55 60 54 94 94 78 73 58 67 64 69 56 61 53 59 58 46 64 60 48 46 51 52 49 47 50 48 47
82 86 92 91 92 91 90 91 88 88 88 88 88 88 89 88 88 85 87 84 92 97 100 71 53 65 50 50 61 64 73 84 80 75 79 78 70 56 57 55 55 46 51 64 60 54 57 51 52 48 50 50 50 47
86 91 95 91 92 91 88 88 89 90 89 89 89 88 89 88 87 87 84 81 87 91 99 97 74 53 58 60 61 63 87 93 98 99 100 98 63 78 64 58 58 46 55 73 89 56 54 47 52 51 54 51 49 50
91 92 93 90 88 89 90 91 90 90 88 89 90 89 89 87 84 95 100 97 91 94 99 98 84 83 78 67 69 74 91 97 97 99 100 98 85 88 99 71 43 39 42 44 56 59 62 64 54 51 53 50 48 50
89 88 88 88 89 91 92 91 90 90 90 89 89 88 87 86 93 98 92 95 90 92 99 96 90 94 84 93 96 97 95 96 97 98 98 94 94 96 99 84 49 48 50 54 54 58 71 63 68 55 53 52 53 47
87 87 87 89 89 90 90 89 87 86 86 87 87 85 86 89 90 96 76 82 95 97 97 99 89 99 91 99 99 89 96 95 96 90 79 85 68 91 94 53 56 58 58 61 57 55 56 56 57 56 53 52 54 53
92 92 91 91 89 88 85 85 86 89 88 82 82 85 96 98 99 96 83 88 96 99 100 99 92 100 94 97 83 74 72 96 68 79 61 70 68 88 70 52 51 61 60 59 56 53 55 59 58 58 57 54 51 52
91 91 89 88 87 86 86 85 85 86 90 84 87 98 100 98 92 90 97 100 99 98 96 84 71 97 94 95 88 78 65 73 86 70 61 75 67 58 55 56 53 58 56 56 61 63 58 59 59 56 53 49 46 48
91 90 90 90 90 88 86 86 88 85 80 83 100 100 97 94 97 100 100 100 99 99 92 80 98 96 92 93 88 68 84 71 72 73 74 68 62 65 58 61 62 59 55 50 51 50 49 51 54 55 53 50 48 49
93 92 89 86 86 88 87 84 81 71 68 74 95 93 96 98 99 99 93 75 86 70 84 98 98 97 96 82 72 72 76 73 63 68 88 71 70 63 65 67 67 65 60 56 54 54 54 52 52 52 51 50 50 49
91 90 87 87 89 87 84 84 86 85 84 93 98 100 100 95 95 85 89 80 92 88 94 99 100 96 84 64 87 84 92 79 69 94 74 72 64 67 68 68 67 62 62 62 63 61 58 59 66 61 76 90 91 86
84 82 83 83 84 86 84 87 88 88 87 99 98 96 97 91 81 82 77 84 95 91 85 79 85 75 74 78 92 93 84 76 88 87 71 74 82 79 73 72 65 70 86 81 99 99 99 94 94 97 94 91 88 87
81 81 80 81 82 84 82 82 84 63 78 86 74 92 87 93 90 96 97 97 94 85 82 80 72 61 81 97 81 82 95 86 76 80 80 89 85 79 78 76 73 87 98 100 100 96 93 89 88 93 91 93 91 87
78 72 71 74 73 78 77 68 65 66 73 73 77 91 91 97 99 100 100 100 89 85 79 70 70 87 93 79 71 81 66 75 86 87 86 82 90 89 91 92 100 100 100 100 100 98 93 89 91 97 91 90 88 86
75 74 82 75 77 75 70 67 68 72 76 74 94 94 96 100 100 100 100 99 86 91 96 64 84 91 73 76 78 78 90 91 90 87 84 84 91 96 100 98 97 100 100 100 97 96 97 94 89 83 88 96 86 86
77 71 80 74 68 67 65 66 66 67 81 86 87 100 97 100 100 100 100 95 88 76 71 82 67 75 86 77 80 89 87 89 88 90 90 92 94 98 98 100 97 97 95 96 94 93 92 90 86 78 87 91 82 83
77 72 77 74 62 58 61 66 61 81 91 90 92 89 95 99 99 99 99 91 88 77 72 70 85 82 87 86 89 91 91 90 90 91 92 98 98 96 97 95 93 92 89 94 94 78 77 88 78 69 66 68 69 69
68 76 74 72 63 51 53 64 61 63 75 84 82 87 90 92 88 99 89 77 69 73 80 82 86 89 88 89 88 89 91 88 90 90 88 90 91 96 98 90 85 91 79 85 81 77 72 69 64 63 63 62 72 75
64 66 68 60 60 58 61 64 62 63 68 77 72 70 85 76 81 87 78 62 78 81 83 84 89 92 92 91 87 86 88 83 88 87 89 87 91 83 82 82 81 76 76 81 86 85 85 81 70 66 95 98 96 91
63 68 55 56 58 59 64 59 59 60 62 68 68 63 79 92 91 87 63 76 80 86 85 85 85 83 81 87 87 86 91 79 76 76 84 84 86 85 85 87 80 89 85 88 77 89 80 69 74 80 93 99 86 85
64 59 59 54 72 73 77 57 64 56 73 73 63 67 82 83 75 59 82 72 83 84 82 81 88 84 82 81 71 76 81 73 71 75 79 81 82 84 87 87 89 92 86 80 76 80 86 84 86 98 95 94 93 95
62 74 81 80 71 83 75 78 60 61 66 65 67 82 81 78 67 73 81 82 83 73 75 86 76 77 69 66 70 74 77 68 68 71 77 74 76 80 77 79 80 82 83 82 84 89 90 95 93 90 96 96 94 94
63 78 75 79 75 75 80 81 78 66 80 78 80 88 87 72 81 79 82 85 81 85 82 73 67 65 68 74 70 71 69 67 71 71 74 72 76 76 75 74 77 77 79 90 91 94 93 94 91 91 89 91 89 90
77 84 79 82 85 74 72 76 77 80 80 81 89 85 86 85 76 82 77 85 87 83 90 88 84 71 67 68 68 68 70 68 69 70 74 70 72 81 84 84 83 81 79 88 91 90 87 86 88 90 89 88 85 93
74 87 73 65 76 71 86 83 70 80 81 84 93 91 88 79 77 83 78 74 73 79 74 74 71 68 69 68 67 69 73 73 80 75 73 70 71 73 82 90 89 85 79 84 89 90 91 90 89 86 87 86 86 91
89 84 90 87 86 79 85 87 86 84 84 76 80 88 84 81 80 81 76 77 79 73 73 74 72 69 71 73 76 81 82 83 87 84 80 78 74 78 82 82 80 84 84 86 89 88 87 88 89 88 88 91 93 91
90 85 81 91 92 87 88 86 88 81 81 82 92 90 88 78 85 81 80 80 80 79 80 82 87 86 82 80 84 83 86 88 88 86 86 87 87 86 83 84 83 83 85 85 80 84 88 89 89 90 90 91 91 90
84 84 88 93 99 80 90 85 92 93 76 81 74 74 73 83 85 80 81 83 85 91 91 90 90 89 91 88 88 86 87 88 89 90 90 89 90 89 88 88 88 87 88 88 88 84 85 87 87 88 89 90 90 90
82 88 91 90 90 90 93 95 93 90 89 87 89 89 85 87 86 84 84 88 88 90 88 88 88 88 87 87 87 86 87 87 87 87 87 88 88 88 90 89 89 89 88 88 88 88 88 88 89 90 90 91 91 90
89 90 92 89 91 93 94 94 94 93 92 91 92 88 90 89 89 86 85 86 86 87 94 90 88 88 88 88 88 87 89 86 86 89 89 90 89 89 88 86 88 87 87 87 88 88 86 87 89 90 91 91 91 91
88 89 87 88 88 88 93 94 89 91 90 89 90 88 89 89 90 88 83 88 89 89 88 88 88 89 87 86 87 88 84 88 89 89 90 92 93 92 88 88 87 87 86 88 88 87 87 87 89 89 90 91 91 91

GFSWCAN_sfc_rhum_159.txt.gz
RH
70 70 74 76 76 80 84 84 92 88 91 88 84 81 81 84 78 66 64 79 73 86 51 49 44 49 44 50 61 74 81 97 99 99 78 62 56 46 47 36 55 51 63 71 67 74 74 28 35 47 60 48 46 44
72 69 76 77 80 80 82 88 90 89 91 87 83 81 83 85 83 74 82 64 66 70 50 55 50 41 40 42 58 58 62 92 81 82 59 50 62 56 48 53 31 63 43 54 53 55 48 36 35 43 42 44 49 48
67 73 76 84 83 81 82 91 87 90 89 84 85 84 85 87 85 71 78 80 83 77 67 58 55 46 43 47 43 82 88 71 67 66 85 72 68 48 63 49 44 43 34 52 49 40 36 34 37 41 39 42 40 40
70 74 84 86 90 91 92 90 91 89 87 87 86 86 86 88 86 77 78 78 71 84 92 57 41 53 42 40 46 51 58 62 74 75 97 81 71 48 54 42 48 42 58 58 54 43 37 39 37 41 41 42 40 39
76 79 90 93 92 92 95 92 91 90 88 88 88 88 88 89 87 82 84 76 73 70 98 88 59 47 49 56 49 49 66 71 94 98 100 97 57 65 55 55 57 38 49 67 88 54 45 41 43 40 45 42 40 43
78 88 93 92 95 94 93 92 92 90 90 89 88 88 88 89 89 94 100 89 80 76 99 82 54 58 51 55 68 67 65 82 96 99 100 97 85 77 99 68 40 36 32 32 48 47 49 55 43 41 44 40 40 41
91 93 93 92 90 91 92 93 92 91 90 90 89 89 89 88 84 97 96 87 73 79 99 88 63 81 78 71 83 86 85 97 97 98 99 96 96 93 100 85 42 41 34 37 42 48 58 52 55 45 42 40 45 38
94 94 94 94 93 93 92 92 91 90 90 90 89 89 87 84 88 87 79 88 88 95 96 90 67 82 89 99 99 94 98 98 98 98 96 95 89 94 98 53 50 43 42 46 48 45 49 47 47 47 42 43 45 46
89 90 92 92 92 92 91 90 90 89 88 88 87 86 92 96 98 94 82 89 88 95 100 98 76 84 96 99 98 98 97 100 91 90 80 69 83 95 65 49 44 48 51 47 47 43 45 51 50 50 48 47 48 49
91 91 92 91 89 88 87 85 84 82 83 81 81 97 100 98 87 84 95 99 100 99 99 99 59 97 97 100 100 97 88 95 90 70 61 73 65 46 47 47 45 48 47 47 55 57 51 54 54 52 50 47 44 45
90 89 88 87 86 87 88 88 87 84 75 78 100 100 97 89 96 99 100 100 99 100 95 64 65 89 95 100 99 73 91 70 67 66 64 63 58 62 50 49 51 51 48 47 44 45 43 44 50 53 51 49 45 46
88 87 87 87 86 86 89 88 81 71 72 76 86 95 96 98 100 100 94 92 96 70 76 88 96 94 99 96 98 81 70 64 56 59 77 63 72 54 56 56 55 57 52 48 47 47 47 45 47 50 51 50 47 47
87 87 88 88 88 87 85 83 85 86 79 85 97 100 100 97 99 98 97 78 87 77 96 99 100 98 95 90 90 81 95 76 55 87 66 67 62 61 63 63 59 56 56 56 57 56 54 53 58 58 77 93 99 96
87 89 89 88 86 89 87 87 85 77 89 100 100 100 98 98 92 73 95 94 92 87 91 98 99 97 90 93 90 100 71 65 82 85 65 79 75 76 70 68 59 67 86 79 99 100 100 100 100 100 100 100 92 94
85 86 85 84 86 89 87 88 88 68 86 96 93 98 90 89 79 92 92 91 88 83 94 93 70 66 78 96 71 71 92 78 61 71 87 87 77 77 77 79 72 85 100 100 100 100 100 100 100 100 100 100 100 95
76 72 71 82 84 84 85 83 75 60 66 80 68 93 85 98 100 100 100 100 83 81 77 72 64 85 89 75 68 77 56 64 88 85 87 77 81 85 91 91 100 100 100 100 100 98 97 100 99 99 99 99 100 99
70 64 81 78 79 77 69 58 59 62 67 67 96 93 100 100 100 100 100 96 76 86 94 56 79 72 62 62 66 70 94 88 86 86 80 79 86 91 99 100 100 100 100 99 99 97 100 99 96 79 90 99 88 90
59 59 74 72 63 61 54 55 59 60 73 83 96 100 99 100 100 100 100 93 91 68 63 71 58 62 84 66 82 89 87 83 79 84 87 90 88 97 100 100 100 100 99 100 100 99 98 98 85 77 86 90 82 82
64 58 74 70 60 47 54 56 52 69 80 78 84 82 93 99 98 100 100 82 76 66 64 63 82 72 82 88 91 90 88 81 83 86 89 100 100 100 100 100 100 100 97 99 93 78 79 93 81 67 64 68 68 68
67 75 72 69 59 42 46 56 50 55 68 74 71 80 80 87 87 100 97 84 78 79 82 81 84 90 91 91 90 86 88 86 84 88 88 89 95 100 99 92 87 88 77 82 79 77 69 67 61 61 62 61 71 76
56 54 64 54 47 45 50 54 54 55 57 71 64 64 79 70 78 87 74 59 81 78 82 85 90 92 92 87 82 78 86 78 83 80 86 86 89 82 76 77 74 72 74 81 86 83 83 81 70 66 92 96 93 90
47 66 46 47 50 50 55 48 50 50 57 62 62 57 80 98 93 85 57 74 75 84 88 89 84 79 78 84 85 78 88 69 67 69 78 80 85 84 86 86 78 84 80 82 75 85 78 65 71 77 90 94 85 83
59 51 49 47 78 75 76 48 56 47 72 67 56 64 76 79 69 50 80 65 82 81 79 80 84 79 80 80 65 70 74 65 64 69 71 73 74 77 83 81 83 89 89 86 76 76 81 86 83 94 91 90 89 90
59 74 94 83 70 91 76 78 51 51 57 56 54 69 68 71 58 65 72 76 82 70 73 85 71 69 61 58 61 66 68 57 58 67 69 67 74 74 71 73 74 77 79 84 85 91 90 99 92 89 91 89 90 89
67 85 91 81 75 82 83 85 80 57 76 72 71 78 81 62 79 70 72 80 78 80 76 66 62 59 65 70 64 64 59 58 62 65 66 64 74 75 70 66 69 69 73 87 89 92 93 89 90 88 81 83 84 80
76 94 85 84 82 74 66 75 75 77 74 81 83 72 80 82 79 76 66 79 87 83 89 88 80 66 61 58 60 63 65 60 60 70 70 65 68 84 87 87 87 83 74 84 88 87 83 80 81 80 81 80 81 88
73 84 62 56 63 61 81 77 60 76 78 77 82 86 84 77 72 76 70 70 73 78 69 69 63 61 62 62 60 64 66 67 75 72 66 63 66 67 77 85 84 80 71 76 81 83 85 83 85 88 89 90 92 87
74 73 83 83 80 69 84 81 80 76 77 64 71 81 74 81 80 79 75 70 80 71 69 67 64 62 66 68 70 74 74 77 80 77 71 69 67 73 75 78 76 74 76 79 82 82 82 83 81 84 91 89 88 87
77 72 72 85 82 76 78 75 75 72 71 73 86 82 84 73 80 78 76 76 76 77 78 82 83 82 77 75 80 78 82 83 87 86 82 87 91 89 77 80 80 79 80 79 73 76 83 86 88 90 88 88 88 88
67 63 71 69 88 72 87 81 93 88 69 76 67 66 67 81 82 76 80 81 83 89 88 86 86 88 87 88 88 87 87 86 86 88 89 89 89 86 87 85 84 83 83 83 83 78 76 86 87 84 86 87 88 88
59 72 79 75 78 95 95 93 92 88 88 85 87 87 82 85 85 81 79 83 84 88 88 88 88 87 87 85 85 84 90 86 82 80 82 86 86 88 86 84 84 84 84 84 84 83 84 85 86 86 86 87 88 88
76 77 86 77 87 94 92 93 92 90 89 90 91 88 89 89 86 85 84 87 86 86 92 85 86 88 81 81 82 85 83 86 84 85 85 86 86 85 82 81 83 82 82 83 83 83 82 83 86 86 88 88 89 89
77 76 79 82 83 88 96 90 86 86 86 85 87 88 89 90 88 88 84 89 90 89 86 84 83 83 81 81 83 85 80 84 84 86 87 90 91 89 84 83 82 82 81 83 84 83 83 83 86 86 87 88 88 88

GFSWCAN_sfc_rhum_162.txt.gz
RH
67 70 72 74 74 76 77 76 77 77 81 87 83 82 90 90 84 81 87 66 64 74 51 45 40 42 41 40 52 48 68 82 96 100 96 69 64 49 44 39 48 68 69 73 67 68 76 29 31 74 65 47 47 47
70 73 75 76 77 78 78 79 82 86 91 87 83 83 90 88 83 77 89 65 60 75 56 54 49 47 43 52 63 73 72 90 78 97 73 62 68 63 52 67 37 72 50 57 50 66 68 67 64 49 43 44 48 48
71 74 76 77 76 78 79 79 83 85 85 87 89 90 92 86 80 74 80 79 74 74 61 54 54 45 41 44 52 77 60 60 79 74 88 85 76 58 71 58 52 53 47 70 73 42 36 38 43 47 38 44 41 42
72 76 75 75 78 81 83 80 83 85 89 91 92 92 87 82 81 77 83 81 70 66 85 57 36 44 37 39 42 52 59 58 67 73 87 93 78 55 67 57 64 57 70 66 63 50 42 41 41 40 41 40 38 39
73 75 75 79 82 87 86 86 90 88 89 90 90 86 85 85 83 75 84 84 78 64 92 79 56 46 44 48 46 48 58 65 81 90 99 94 60 67 57 58 68 45 53 72 84 64 59 51 45 38 45 43 40 43
73 74 80 84 86 85 90 90 93 89 89 89 85 85 87 86 81 88 99 78 76 70 80 78 49 47 46 49 54 57 61 71 83 97 96 95 66 78 89 74 44 37 45 54 56 65 63 56 47 38 43 42 39 42
76 80 86 89 89 91 93 91 92 92 89 87 86 86 84 83 91 98 94 87 75 69 93 85 57 54 56 55 68 82 75 89 87 98 100 98 91 92 100 89 53 46 40 53 50 52 58 50 56 44 42 39 45 38
90 90 95 95 94 93 93 94 92 92 92 90 87 88 88 88 87 88 77 79 85 92 85 84 65 80 72 93 93 96 98 98 99 98 99 99 89 97 99 72 53 45 46 44 44 42 46 46 45 44 41 40 44 45
91 93 92 92 92 93 94 93 91 89 89 90 91 91 91 93 95 91 89 88 96 92 100 87 79 81 94 98 99 99 98 100 97 99 98 92 97 98 79 54 46 46 50 49 42 44 42 48 48 47 46 46 48 51
95 95 95 94 94 93 90 88 89 91 90 84 80 97 100 98 87 83 95 99 99 99 99 97 66 86 95 100 100 100 100 99 100 92 84 98 77 50 52 48 46 48 48 44 52 57 52 53 55 54 50 49 45 48
91 90 90 89 87 86 87 86 85 80 74 80 99 99 98 90 89 99 100 100 98 99 96 77 61 79 96 100 100 99 99 98 98 94 81 74 69 73 50 51 50 52 50 45 44 47 46 45 52 56 55 54 54 54
89 88 87 86 84 82 80 78 74 70 72 76 88 95 96 99 100 100 96 81 96 68 80 79 80 87 99 97 100 96 100 84 85 63 80 67 78 58 58 58 55 55 54 49 48 48 56 46 51 55 57 60 61 63
87 87 88 88 85 82 80 84 80 83 72 69 90 100 100 94 100 94 88 72 85 94 98 99 100 95 91 88 100 100 97 82 56 91 66 85 71 66 66 68 63 58 67 59 64 72 82 82 93 75 87 92 92 91
90 90 89 88 88 88 87 86 83 71 74 99 100 99 97 97 80 72 97 99 97 89 90 90 99 99 96 100 97 99 93 66 76 78 70 93 80 78 77 84 73 85 96 91 99 100 100 100 100 100 99 92 89 92
89 89 90 89 89 87 86 84 80 60 84 99 98 98 89 85 78 90 86 90 93 94 98 100 98 94 99 91 94 72 84 75 62 78 95 87 84 83 86 96 95 92 99 97 98 100 99 97 98 98 98 100 93 93
81 82 88 87 84 84 85 81 76 84 81 89 73 96 86 95 100 100 100 100 91 100 96 95 83 92 85 78 69 73 58 63 94 90 92 81 83 89 92 99 100 99 99 96 97 98 98 97 96 97 99 98 96 93
70 64 82 86 84 84 83 79 71 65 66 72 97 91 100 100 100 100 100 100 93 99 100 78 83 68 67 67 65 82 95 96 94 93 88 87 88 93 98 100 100 100 99 92 94 96 94 94 96 88 93 95 93 94
62 66 79 80 74 67 58 58 60 63 70 77 100 100 100 100 100 100 100 94 96 97 86 90 65 65 84 66 87 93 94 90 83 87 90 91 91 95 95 98 98 99 93 96 97 97 96 98 93 88 93 91 90 90
64 59 72 72 68 61 69 55 52 70 78 79 85 88 98 100 99 100 100 94 80 73 74 68 80 79 90 92 94 97 96 94 92 89 93 100 94 99 100 100 100 100 96 98 96 94 93 94 86 81 80 80 83 84
73 73 71 69 64 49 45 57 51 57 73 75 76 80 80 90 94 100 98 86 75 75 80 79 87 95 93 96 95 96 96 94 92 94 92 95 98 100 99 94 88 96 92 92 85 84 85 81 73 73 76 77 91 97
57 55 62 56 43 41 46 54 53 56 60 75 69 74 82 82 85 89 84 79 95 93 88 89 94 96 94 94 89 87 86 81 88 89 94 93 98 97 92 89 88 86 88 89 92 91 91 88 81 82 96 96 95 93
43 66 47 46 50 48 54 46 54 52 60 67 71 66 83 98 94 85 62 76 80 86 91 89 86 87 85 85 82 75 85 71 74 78 79 85 91 90 94 95 92 95 92 93 91 93 91 81 82 88 93 93 85 83
58 52 49 46 77 76 74 49 59 51 74 70 60 71 76 80 71 53 78 70 86 87 90 83 82 78 80 77 67 68 73 62 73 72 71 82 85 87 91 88 88 91 92 87 88 95 93 90 92 91 93 92 92 94
63 75 94 82 73 88 76 81 52 50 59 58 61 65 66 71 58 62 68 82 86 75 78 84 71 70 62 59 67 70 68 57 72 70 70 71 79 81 78 79 81 84 85 92 88 93 89 96 93 91 92 91 94 94
67 89 94 80 79 83 81 80 81 54 72 70 61 70 72 59 74 67 67 86 84 87 81 71 68 62 75 74 70 68 59 59 65 74 70 69 76 90 82 72 73 73 78 92 92 92 93 92 93 89 85 89 86 84
80 89 77 78 78 70 63 73 75 74 67 74 74 69 73 74 75 70 70 88 91 85 92 92 82 67 64 61 70 71 66 61 62 77 71 67 71 84 88 87 92 85 77 89 92 90 88 88 90 90 89 83 93 86
76 79 58 52 56 56 71 70 56 68 74 74 71 77 76 78 72 86 72 84 81 82 72 74 68 71 68 68 69 71 72 69 77 73 67 68 71 73 82 90 90 83 73 84 87 89 91 89 88 88 88 95 91 89
64 64 79 76 71 57 73 72 72 72 70 60 65 76 73 85 90 86 80 72 79 69 72 69 68 70 72 76 78 84 85 83 80 76 72 73 73 77 81 82 83 82 83 86 86 86 87 86 90 92 94 92 92 89
70 71 64 86 80 66 68 65 63 75 67 69 89 88 85 77 84 82 79 75 73 78 82 82 85 84 81 80 83 83 85 85 88 89 86 93 95 91 82 83 84 84 84 85 82 84 89 84 84 89 92 92 91 89
53 50 63 68 82 64 77 90 94 87 72 77 68 66 72 85 82 75 83 84 87 93 89 86 87 93 90 94 89 86 84 85 88 90 91 91 91 88 86 86 87 86 88 85 85 80 82 84 91 87 90 90 88 90
55 66 73 74 71 78 94 89 88 86 86 85 92 94 86 87 87 82 81 85 84 85 88 88 87 89 89 91 93 93 93 88 85 83 84 90 89 87 86 87 87 87 86 84 86 85 87 87 88 87 88 89 90 90
70 70 76 72 74 89 83 82 89 90 88 90 89 89 91 92 89 88 84 90 91 90 90 88 90 88 88 86 87 86 88 87 87 87 87 88 88 87 87 84 86 85 85 84 85 86 87 86 87 87 88 89 90 91
69 70 68 68 76 87 86 81 82 88 83 88 87 87 90 92 90 89 82 89 93 92 91 91 89 86 85 89 85 86 82 85 87 88 88 90 91 91 89 90 84 84 84 86 86 85 86 83 87 86 88 89 90 89

GFSWCAN_sfc_rhum_165.txt.gz
RH
66 67 69 73 74 76 76 77 78 77 78 79 76 78 79 83 83 94 93 91 97 94 78 73 65 61 61 60 73 70 83 94 98 98 93 88 85 71 65 53 60 88 97 98 93 96 87 63 52 76 88 89 62 65
68 71 73 74 76 74 74 75 76 78 77 78 76 78 80 84 88 89 97 88 90 98 85 68 73 63 68 73 81 84 84 90 86 94 95 89 91 83 74 90 57 91 78 85 77 82 71 76 71 74 76 61 59 68
71 75 74 75 74 76 76 77 80 80 80 77 79 78 82 83 87 89 96 95 96 91 86 77 69 59 52 57 64 91 86 90 92 89 98 96 99 92 98 85 84 71 67 81 79 72 72 79 77 77 56 54 53 62
73 74 74 74 76 78 78 78 80 79 79 79 85 86 85 82 90 88 96 97 90 89 96 80 47 61 50 53 58 65 72 73 82 93 96 100 99 80 92 82 84 78 82 99 97 85 69 68 75 69 60 48 48 58
73 72 73 73 76 78 79 78 81 82 79 81 85 85 82 85 91 92 95 92 89 94 95 90 70 54 56 57 56 60 73 80 93 96 98 97 86 85 86 84 91 62 71 92 91 74 77 70 74 62 58 53 51 60
72 72 74 75 78 78 79 82 86 87 87 84 87 85 83 92 91 96 100 85 85 93 94 98 70 62 61 66 69 74 76 86 92 96 98 96 79 88 100 93 61 51 56 65 89 74 79 85 83 83 60 55 53 57
73 74 77 77 77 79 82 86 86 84 85 94 89 90 92 90 92 98 97 95 80 90 96 95 90 72 72 71 84 84 82 92 93 96 99 99 98 91 100 97 61 54 53 53 74 84 83 67 76 59 56 54 58 53
77 79 78 82 82 85 85 88 88 91 91 92 91 86 86 87 86 94 95 87 88 96 95 98 94 94 81 95 97 98 99 99 99 98 99 98 95 98 99 79 74 64 54 58 59 56 59 59 62 59 56 56 59 63
86 88 87 84 83 90 94 92 91 91 92 90 90 89 91 96 99 99 90 88 95 96 95 94 88 99 94 99 99 99 99 99 98 99 98 97 97 98 90 81 66 58 64 60 53 54 53 63 64 63 61 62 65 66
95 95 94 94 92 92 92 92 93 93 92 86 88 98 100 100 87 82 93 100 100 100 98 98 81 98 98 99 99 99 99 99 99 91 90 100 98 84 73 60 62 65 62 62 67 70 67 68 67 68 64 61 62 64
91 91 92 92 92 92 92 91 88 81 74 91 100 98 99 89 93 95 96 96 99 99 97 90 85 96 99 99 99 99 99 99 99 97 98 99 99 84 67 68 67 66 65 66 60 59 59 63 66 68 67 66 68 70
91 92 92 92 90 87 82 78 76 86 94 91 91 95 97 92 98 98 96 95 95 90 96 97 94 91 100 99 99 99 99 100 98 98 99 96 98 77 77 76 73 72 75 71 74 81 84 71 75 68 71 72 75 74
85 85 85 84 82 80 83 83 82 83 82 91 94 99 92 97 98 99 98 86 97 96 99 100 100 99 99 99 100 100 99 98 83 97 94 99 89 82 85 86 81 78 84 88 91 92 92 94 97 87 88 92 88 90
87 84 84 88 86 87 86 87 86 80 92 95 97 100 96 99 92 94 93 97 99 100 99 99 100 99 99 100 100 99 96 100 90 95 90 98 90 86 93 95 87 97 98 96 97 98 99 99 99 99 97 95 90 92
89 88 88 89 87 85 84 85 83 82 96 98 96 93 94 94 99 98 97 98 98 99 99 99 99 99 99 99 99 99 96 94 91 98 99 98 88 90 96 98 99 98 96 92 92 97 98 99 99 99 97 96 93 93
82 84 88 86 86 84 81 81 85 89 91 95 91 98 97 98 97 99 98 97 98 100 99 100 100 99 98 99 98 88 81 92 99 98 99 93 95 96 98 99 94 96 96 95 95 99 99 99 99 99 98 98 97 94
73 91 82 83 84 84 82 88 90 91 92 93 98 98 100 100 100 100 100 100 99 100 100 100 98 80 82 90 87 96 98 99 98 98 98 94 97 98 99 99 99 96 96 96 96 93 93 97 97 96 98 99 98 97
82 87 85 86 85 79 80 84 91 84 80 94 99 100 100 99 99 100 100 100 100 100 100 99 81 91 98 97 98 99 99 97 95 97 98 98 98 99 99 99 99 98 97 93 95 96 98 99 98 99 96 97 98 98
78 77 76 79 81 82 96 75 83 90 91 96 98 98 100 99 100 100 100 99 98 98 97 95 92 97 98 99 98 99 99 99 98 99 99 99 99 99 99 99 99 99 99 99 98 99 99 99 94 94 98 97 99 98
72 72 70 74 75 76 62 77 68 78 88 94 96 97 97 99 99 100 99 98 93 95 93 95 99 99 99 99 98 98 99 99 99 98 99 99 99 99 99 99 99 99 99 99 97 99 99 97 95 95 98 98 98 99
75 70 67 70 75 70 67 76 74 77 79 94 88 90 98 95 98 98 100 99 98 99 97 99 98 98 97 97 93 92 92 90 97 96 99 99 99 99 98 98 95 94 96 98 97 97 96 98 97 94 97 98 96 97
65 69 72 68 72 67 76 67 76 73 79 86 88 87 97 99 98 96 86 93 97 99 99 97 96 96 95 94 94 90 93 90 84 87 92 94 98 98 98 98 98 98 98 99 99 99 98 95 96 97 97 98 95 96
62 70 75 70 84 90 85 74 78 69 89 89 84 88 94 96 90 75 95 89 99 99 98 95 95 86 90 92 80 79 86 81 86 84 89 98 94 97 95 94 95 96 97 97 98 99 99 98 97 98 98 97 98 98
65 86 93 94 93 94 92 96 79 75 87 83 84 82 87 94 82 92 93 98 99 96 98 95 89 91 89 83 87 91 88 85 85 94 89 91 95 94 91 91 90 92 95 93 93 96 97 98 98 97 96 97 97 96
84 93 94 90 92 95 93 88 90 80 85 84 76 88 91 85 92 90 89 98 98 98 98 92 90 94 96 95 91 90 76 80 90 90 95 92 96 97 95 89 92 92 89 95 95 97 98 96 95 95 95 97 97 97
94 91 84 86 89 84 84 87 89 86 86 85 87 91 93 92 88 94 97 98 98 98 98 98 98 88 92 94 94 90 94 86 87 88 94 87 93 98 97 97 98 98 96 98 98 98 95 95 95 95 96 95 98 98
93 90 80 73 82 80 89 86 80 86 87 89 92 92 92 98 96 98 98 97 98 98 94 93 89 95 88 89 88 95 96 91 96 90 88 86 89 93 97 100 100 98 97 97 98 98 98 98 99 98 97 96 98 100
80 79 94 90 89 87 86 89 86 86 91 89 89 92 94 99 99 99 98 98 97 92 92 89 84 88 94 95 98 98 98 97 94 92 92 92 94 95 96 95 96 90 95 96 97 97 98 97 100 99 97 99 100 98
85 81 76 91 92 90 87 87 90 96 90 94 98 98 98 98 98 98 97 95 95 95 97 98 98 97 96 96 96 96 96 96 97 97 96 96 98 98 98 97 97 97 97 97 94 92 92 99 98 98 97 96 99 95
84 71 86 83 86 88 97 98 98 98 94 96 88 87 92 98 97 97 97 97 97 97 98 98 99 98 97 95 97 97 95 94 95 96 97 98 98 98 98 98 98 98 97 98 98 97 92 93 92 91 93 94 94 93
79 86 90 95 96 97 98 96 90 86 95 95 98 97 98 98 98 95 95 96 97 98 98 98 96 96 95 96 96 96 99 97 95 95 97 97 98 100 100 98 98 98 98 98 98 97 95 94 94 94 94 95 95 94
89 86 93 90 88 89 94 96 97 97 94 98 99 97 98 98 98 98 97 96 97 97 96 96 94 97 97 95 95 95 95 99 99 99 100 100 100 99 97 98 97 98 95 94 94 94 93 94 95 96 96 98 97 96
87 90 89 91 90 86 90 89 91 97 96 97 98 97 98 98 99 99 98 97 97 96 96 96 96 96 95 94 94 94 94 96 97 100 100 100 100 100 99 99 98 94 93 94 94 94 95 96 97 99 98 98 98 96

GFSWCAN_sfc_rhum_168.txt.gz
RH
70 68 68 69 71 72 69 70 74 77 78 79 80 81 81 77 79 91 96 93 95 98 93 79 77 77 69 65 77 69 82 89 97 96 96 92 88 76 69 54 63 80 89 93 90 97 91 52 64 74 73 89 78 72
69 68 68 70 72 73 75 73 74 77 80 80 80 81 79 75 77 84 96 95 94 100 94 75 72 69 74 77 76 86 76 92 90 93 94 90 92 90 86 91 66 91 80 92 83 84 67 80 77 73 82 76 71 69
67 66 68 71 73 74 73 75 76 78 80 80 79 81 75 75 76 82 96 96 97 99 98 89 73 67 60 64 72 88 94 90 94 92 97 96 94 97 99 96 94 81 80 96 87 76 78 71 70 63 72 81 64 64
64 66 68 70 73 75 76 76 78 78 79 79 80 80 76 77 75 81 98 98 95 97 99 80 58 66 55 60 71 76 79 83 92 96 98 97 96 84 95 89 83 78 80 96 98 85 78 67 69 71 74 79 57 64
69 70 71 73 74 76 76 79 81 82 81 82 80 78 76 79 80 88 96 98 96 98 96 91 72 56 57 62 60 66 78 85 95 97 98 94 94 90 92 92 95 67 76 95 93 76 80 76 70 74 74 72 58 64
71 73 76 76 76 76 76 80 82 81 81 81 81 71 74 83 84 98 100 97 97 97 94 92 78 70 65 70 69 74 81 91 94 97 99 96 89 87 99 99 70 54 58 70 81 75 82 80 82 79 76 65 60 65
75 75 75 74 75 76 77 81 82 80 81 80 78 76 79 85 93 99 98 94 84 92 96 92 91 76 82 81 89 90 86 93 93 96 99 97 96 92 96 96 68 60 56 56 57 74 85 75 84 69 83 73 66 62
78 76 77 76 76 77 79 80 80 81 83 84 84 88 85 85 91 99 98 87 90 96 96 99 95 93 88 97 97 98 99 96 97 98 99 98 96 95 98 71 64 62 67 68 63 69 69 66 61 60 60 65 67 70
80 80 79 79 79 81 82 82 82 81 81 84 87 85 96 97 99 98 88 86 95 93 98 98 96 96 94 99 99 99 99 100 98 99 98 98 99 98 85 78 83 75 68 71 65 60 61 64 63 64 66 73 72 74
84 82 82 82 84 84 83 81 81 85 92 88 88 98 100 100 89 84 93 99 99 99 98 98 90 98 96 99 99 99 99 99 99 94 97 99 91 81 77 79 70 74 73 70 76 75 68 69 67 68 67 65 66 68
93 94 90 90 88 87 89 93 93 86 75 93 100 100 98 85 95 98 99 96 98 99 98 87 92 97 97 98 98 99 99 99 99 97 97 98 95 91 74 75 74 77 76 79 76 80 77 77 73 68 68 69 70 72
90 91 92 92 91 89 85 82 80 93 97 90 92 96 95 96 98 93 92 83 94 93 97 93 88 93 100 99 99 99 99 99 99 98 99 99 99 89 84 88 86 91 88 85 81 85 87 81 86 82 74 75 77 75
93 92 88 86 85 86 86 84 79 82 84 90 94 95 94 98 94 95 90 93 96 95 98 99 98 96 100 99 98 99 99 97 100 99 97 99 91 88 96 96 89 90 92 90 95 95 96 98 98 93 91 91 88 88
89 90 88 87 87 86 83 83 84 86 90 94 95 99 93 98 94 95 95 95 95 100 99 98 100 99 99 99 97 99 95 97 98 98 93 99 94 93 97 97 90 98 94 92 93 98 99 99 99 99 95 96 90 89
84 84 83 86 85 84 83 83 83 92 96 95 91 98 99 94 98 99 98 99 93 98 99 100 100 100 99 99 98 98 98 97 92 97 99 98 94 94 97 98 98 93 93 92 97 98 99 100 99 99 97 95 94 94
85 85 92 86 84 84 85 89 93 92 94 94 95 96 97 97 99 97 96 97 98 100 100 100 99 99 98 98 98 94 86 89 99 99 99 97 96 96 98 97 96 97 95 94 97 97 96 99 100 99 99 96 96 94
82 95 84 83 83 82 80 91 93 88 95 93 98 100 98 98 99 100 99 98 99 100 99 100 98 85 98 97 96 98 99 99 98 98 98 96 96 98 99 99 98 96 96 95 93 93 97 99 98 96 96 99 98 97
92 90 85 84 87 85 89 90 93 89 83 96 98 99 100 99 99 99 100 100 100 100 100 99 95 97 98 96 98 99 98 98 97 98 98 98 98 99 98 99 99 99 98 97 99 99 97 97 99 100 98 98 99 99
86 88 83 83 87 88 91 87 88 92 93 98 99 100 99 98 100 100 100 100 100 100 100 99 97 97 98 98 98 99 98 97 97 99 99 99 99 98 96 99 99 98 98 98 98 99 98 98 98 98 99 99 99 99
67 71 70 75 78 85 80 81 84 87 91 94 98 98 99 99 99 100 100 100 100 99 96 95 99 100 99 100 99 99 99 96 95 97 99 99 99 98 98 99 99 99 99 98 98 98 99 98 98 98 98 98 98 98
72 75 71 76 78 81 78 81 82 83 84 96 93 94 98 98 100 99 99 99 98 98 97 98 99 99 99 98 97 94 96 95 98 97 97 98 99 97 98 99 96 96 97 98 98 98 97 98 98 94 96 97 97 97
73 70 80 79 80 78 82 80 84 82 87 90 92 92 99 100 98 96 93 94 98 99 99 99 99 97 95 96 97 88 94 89 90 94 97 95 98 97 97 98 97 98 97 98 99 98 98 98 98 98 98 99 98 98
68 76 83 78 78 85 80 85 83 79 89 91 91 93 96 98 94 83 98 93 99 99 99 98 96 90 90 92 81 94 90 84 92 93 96 97 96 96 95 96 95 96 96 95 95 96 98 98 96 98 98 98 98 98
75 88 94 95 95 96 93 96 87 83 83 86 89 86 94 95 85 95 96 98 99 99 98 98 89 93 91 80 87 95 96 87 90 93 96 95 96 97 94 97 97 98 98 96 96 98 98 100 99 98 98 98 97 98
82 86 91 92 90 92 96 94 90 82 88 87 79 91 93 88 94 97 94 99 99 99 98 98 98 96 96 98 95 91 86 86 89 93 96 90 98 93 94 94 97 99 98 99 100 100 99 98 97 98 97 99 98 97
99 91 87 89 91 91 92 93 97 92 94 88 91 93 95 95 94 99 96 97 98 98 98 99 98 95 95 87 95 96 98 94 84 94 99 94 95 94 97 100 100 98 98 100 100 100 99 99 100 98 99 97 99 98
94 88 88 80 90 86 90 91 89 92 91 94 95 95 95 99 99 98 98 96 97 98 98 98 96 90 92 96 96 98 99 97 94 94 95 94 96 92 93 98 100 98 99 99 100 100 100 100 100 100 98 98 98 99
89 83 94 87 94 91 90 95 94 95 97 94 94 97 97 97 98 98 98 97 99 94 94 95 94 93 94 96 98 98 97 97 96 94 93 94 96 98 98 98 98 98 100 99 100 100 100 100 100 99 99 100 100 99
91 84 82 87 95 95 95 97 98 98 97 98 98 98 97 95 97 97 96 97 97 98 98 99 98 97 96 95 96 96 97 97 96 97 98 100 100 98 100 99 99 100 100 99 100 99 97 100 96 97 100 100 100 99
86 89 92 93 90 90 98 100 100 99 98 97 91 93 96 98 98 98 95 95 96 98 98 98 98 97 98 96 97 96 96 96 96 97 96 98 99 99 100 100 100 100 100 99 100 95 96 97 98 94 94 96 95 95
92 93 95 98 98 98 97 98 98 97 96 97 99 98 100 98 98 97 96 96 96 97 97 96 96 96 95 96 96 96 97 97 97 96 96 97 98 100 100 100 100 100 99 98 98 99 98 97 98 98 97 99 99 97
95 91 96 99 92 89 95 96 100 98 99 100 100 100 98 98 100 98 96 96 96 96 96 96 96 96 96 96 96 96 95 98 98 98 97 99 100 100 100 100 98 96 95 97 98 97 94 96 97 98 99 100 100 100
93 98 96 95 91 87 90 91 95 98 97 99 98 98 99 98 99 98 98 98 97 97 97 97 96 96 96 95 95 96 95 96 95 98 98 99 97 100 98 98 96 94 94 95 96 94 95 96 98 99 98 99 100 100

GFSWCAN_sfc_rhum_171.txt.gz
RH
80 76 74 72 70 70 71 68 71 71 74 78 78 78 80 81 80 91 93 94 96 100 91 85 77 84 75 73 82 72 86 87 96 95 98 92 90 75 66 54 61 78 92 96 89 94 89 55 62 71 72 78 82 83
80 78 75 73 72 72 72 69 70 74 75 78 78 80 81 78 79 82 93 97 94 98 98 92 85 73 74 70 77 82 85 82 82 88 92 90 90 90 81 82 69 80 82 94 85 85 70 69 75 72 79 80 75 79
85 88 73 73 71 72 69 71 76 76 75 77 78 78 78 77 76 81 97 97 98 99 99 98 89 67 68 72 72 89 95 82 92 89 94 94 96 95 98 92 97 92 89 100 100 88 75 71 72 75 73 80 75 77
71 72 72 71 71 72 71 74 78 77 77 76 79 81 80 79 76 77 96 96 93 98 100 88 64 76 61 67 77 74 81 93 93 96 97 96 99 92 97 91 98 84 82 93 97 83 72 69 72 70 68 75 84 71
63 68 69 70 71 71 73 78 78 78 77 75 74 76 77 77 76 87 98 96 91 94 99 93 70 60 60 66 67 73 83 92 98 98 99 98 95 94 93 95 97 70 80 96 93 75 80 76 72 72 80 78 77 79
64 69 70 72 73 74 78 79 79 79 80 79 77 79 76 78 76 99 99 96 91 98 100 94 73 70 66 74 72 76 85 91 95 98 96 96 90 87 96 95 69 64 66 74 82 74 77 70 70 82 87 84 72 72
70 71 72 76 78 78 78 79 80 80 80 79 78 80 78 78 95 98 96 96 87 95 100 90 84 76 88 81 91 91 88 93 92 96 99 96 96 91 97 91 65 65 60 65 68 69 79 84 88 79 79 81 76 71
74 73 75 78 78 77 78 78 79 77 79 78 80 82 79 76 85 97 89 91 91 98 97 97 92 92 89 96 97 98 98 96 96 93 98 93 97 95 98 70 60 51 55 67 70 71 74 73 66 65 68 69 75 78
79 80 81 80 80 78 77 77 78 80 77 76 79 82 91 97 99 97 90 90 98 94 99 98 93 96 93 98 99 99 97 99 98 99 98 96 98 98 82 75 74 76 83 76 69 62 62 68 68 69 69 69 76 79
81 82 83 82 79 78 77 80 81 81 79 79 93 100 99 97 89 91 98 100 100 99 98 96 92 96 96 94 100 99 100 98 93 92 95 99 94 72 73 74 79 77 78 76 81 75 77 77 75 74 68 66 70 74
80 80 78 81 82 82 82 83 83 80 82 98 100 99 98 88 98 100 99 98 99 96 90 85 94 98 96 97 97 99 98 99 98 94 96 86 97 96 86 87 86 84 82 82 77 84 87 87 89 87 76 69 72 76
86 83 82 81 80 80 79 81 83 95 96 91 95 96 96 98 98 94 95 88 82 90 97 87 85 95 95 98 99 99 99 99 96 98 99 98 99 95 91 88 85 87 85 84 86 89 91 87 93 91 85 75 78 77
92 91 89 88 86 84 84 88 91 84 78 85 90 94 93 98 97 92 89 84 89 95 98 96 96 98 99 98 99 98 100 97 99 99 97 97 95 96 99 99 98 93 94 94 95 96 93 98 98 95 94 91 92 91
86 88 90 91 91 92 88 87 84 82 85 94 93 99 93 94 92 95 94 94 94 98 98 96 99 98 97 99 96 100 92 96 97 99 92 98 96 98 97 97 94 95 93 92 94 97 99 99 99 97 96 95 94 93
86 85 86 88 87 86 85 84 81 87 93 96 86 97 98 94 96 98 99 98 96 95 99 100 100 99 99 99 96 96 98 96 95 95 98 98 96 94 98 97 95 95 96 95 98 97 98 99 99 99 96 95 93 93
84 85 92 86 84 82 83 87 91 89 93 93 93 98 97 97 99 96 98 99 97 99 100 100 99 99 98 98 97 94 92 92 96 99 99 98 96 97 98 96 97 96 95 94 95 92 95 99 99 100 97 96 95 94
83 97 84 85 85 82 80 90 88 84 94 90 98 100 98 97 97 93 98 96 98 99 98 99 98 94 98 98 97 97 96 98 98 99 99 96 96 97 99 98 98 97 97 96 94 95 100 99 98 95 97 99 97 97
94 91 82 84 88 88 90 91 87 88 82 97 97 99 99 99 98 97 99 99 99 99 99 99 100 98 98 96 99 99 99 99 98 98 98 98 97 98 98 98 98 98 98 97 99 98 97 97 98 99 99 99 98 98
86 88 79 80 83 88 92 87 84 92 92 98 100 97 96 96 96 99 100 100 99 100 100 99 98 98 98 99 99 99 98 98 98 100 99 98 98 98 98 98 98 98 98 98 98 99 98 98 99 98 98 97 98 98
67 69 68 75 75 84 80 80 87 90 92 94 99 98 98 99 99 100 100 100 100 99 98 97 98 99 99 99 99 95 98 94 94 97 98 99 99 98 99 99 99 98 98 98 98 96 97 98 99 98 98 97 97 98
68 71 69 77 81 80 83 82 83 86 87 96 95 96 98 98 99 100 99 98 98 97 97 98 98 99 98 98 98 97 98 93 98 97 94 98 99 97 98 99 97 97 97 99 98 98 98 99 98 93 97 98 98 98
74 70 84 83 82 79 81 85 86 84 89 92 95 94 99 99 99 97 91 92 97 98 98 98 98 98 97 97 98 97 98 95 95 97 96 95 98 96 97 98 96 98 98 99 98 99 99 97 97 98 99 100 98 98
72 79 82 79 79 83 79 88 85 81 91 90 93 93 98 98 94 82 98 93 99 98 98 99 97 94 95 97 96 94 94 93 98 97 96 96 96 96 96 96 97 98 97 97 96 97 98 98 97 98 98 98 99 99
74 90 97 96 94 98 90 94 84 85 80 88 92 87 95 97 87 95 96 98 98 98 98 98 94 96 94 93 95 96 96 91 93 98 97 95 96 96 97 98 96 97 96 95 94 98 98 100 99 97 98 100 100 100
78 84 88 92 88 91 97 94 92 83 91 89 82 93 93 90 95 98 95 98 98 98 98 98 98 96 94 96 95 96 93 85 91 96 96 95 94 95 96 96 96 95 99 97 100 100 100 99 98 98 97 100 98 99
98 94 92 94 93 94 95 98 98 97 97 91 93 92 95 96 96 98 95 98 98 98 98 98 98 96 96 90 93 94 97 95 86 94 97 94 93 93 96 98 99 99 98 100 100 100 100 99 100 100 100 97 98 98
96 95 83 73 88 87 92 90 86 95 96 97 96 97 96 99 99 97 98 97 97 97 97 96 97 95 94 95 95 97 99 96 93 95 96 94 93 94 93 97 99 96 99 99 100 100 100 100 100 100 99 98 99 100
94 81 95 85 94 92 96 98 98 98 97 93 95 96 97 97 97 98 98 97 98 97 96 94 94 94 94 94 96 97 97 96 95 93 91 92 94 96 97 98 99 100 100 100 100 100 100 100 100 99 98 100 100 100
93 86 83 87 94 93 97 97 97 96 97 99 99 100 95 94 97 96 97 96 96 97 100 98 98 97 96 95 95 95 96 97 96 97 97 98 98 98 97 99 99 100 100 99 100 99 99 98 98 97 99 100 100 100
87 90 93 97 95 90 97 99 100 98 99 98 97 96 96 98 98 98 96 97 97 99 98 98 99 97 99 97 99 97 96 96 97 97 96 97 97 98 99 100 100 100 100 99 100 98 99 98 99 97 96 98 98 98
90 95 96 98 100 98 99 99 100 98 98 97 99 98 99 98 98 98 99 97 98 98 97 97 97 97 96 97 97 98 98 97 96 96 96 97 98 100 100 100 100 100 100 99 99 98 98 98 99 99 98 99 99 99
97 96 97 96 94 92 95 96 99 100 98 97 98 98 98 98 100 97 97 97 96 97 96 96 96 98 97 96 96 96 95 97 97 97 96 97 98 99 100 98 99 97 96 97 97 97 95 97 98 99 99 100 100 100
96 100 100 96 94 90 94 94 100 97 97 98 98 99 99 98 98 97 97 99 99 99 98 98 96 96 96 96 96 97 96 97 96 98 98 98 96 98 98 98 96 95 94 96 97 96 96 97 99 100 100 100 100 100